Location: Juzet
(42.9779°N, 0.7597°E)
Time: 17:46:40
(UTC+00:00)

Resurs 1-4 Rocket - Pass Details

Date: 14 July 2020
Orbit: 800 x 814 km, 98.6° (Epoch: 12 August)

Event Time Altitude Azimuth Distance (km) Brightness Sun altitude
Rises 01:23:06 0° 16° (NNE) 3,346 6.8 -22.8°
Reaches altitude 10° 01:25:29 10° 19° (NNE) 2,408 5.7 -22.7°
Maximum altitude 01:30:47 67° 102° (ESE) 876 2.2 -22.3°
Enters shadow 01:32:22 44° 167° (SSE) 1,101 2.4 -22.2°
